Location: Clanezzo
(45.7500°N, 9.6000°E)
Time: 23:31:54
(UTC+00:00)

Cosmos 1707 Rocket - Pass Details

Date: 12 May 2021
Orbit: 605 x 631 km, 82.5° (Epoch: 23 June)

Event Time Altitude Azimuth Distance (km) Brightness Sun altitude
Exits shadow 21:12:31 39° 103° (ESE) 936 4.1 -19.9°
Maximum altitude 21:12:50 39° 92° (E) 926 4.2 -19.9°
Drops below altitude 10° 21:16:57 10° 23° (NNE) 1,998 6.6 -20.3°
Sets 21:19:18 0° 16° (NNE) 2,914 7.7 -20.5°
